GFSSW_700_temp_336.txt.gz
Temp
13 13 13 14 14 14 15 15 15 15 15 15 16 16 16 15 15 15 15 15 15 15 16 16 16 16 16 15 15 15 16 15 14 15 13 12 12 12 12 12 11 12 12 12 12
12 13 13 13 13 14 15 15 15 15 15 16 16 16 16 15 15 15 15 15 15 16 16 16 15 15 14 15 15 16 16 14 13 13 13 12 12 12 11 12 12 12 11 11 12
12 12 13 13 13 14 14 15 15 15 16 16 16 16 16 16 16 15 15 16 16 16 16 16 16 15 15 15 15 15 15 14 14 14 13 13 12 12 12 12 11 12 12 11 11
12 12 12 13 13 14 14 14 15 15 16 16 16 16 16 16 16 16 16 16 16 16 16 16 16 16 16 16 16 15 15 14 15 15 14 13 13 12 12 12 12 12 12 11 11
12 12 12 13 13 13 13 14 14 15 15 16 16 16 16 16 16 17 16 16 16 16 16 16 16 16 16 15 15 15 15 15 15 15 14 14 14 13 12 12 12 13 12 11 11
12 12 12 12 13 13 13 14 14 14 15 16 16 16 16 16 16 16 16 16 16 16 16 16 16 16 16 16 16 16 15 15 15 15 14 13 14 13 14 13 13 12 12 11 11
12 12 12 13 13 13 13 14 14 14 15 15 16 16 16 16 16 16 16 16 16 16 16 16 16 16 16 16 16 16 15 15 14 15 15 15 15 13 14 14 13 12 11 11 11
12 12 12 13 13 13 13 13 14 14 14 15 15 15 16 16 16 16 16 16 16 16 16 16 16 16 16 17 17 16 16 16 16 16 15 15 14 14 14 14 14 13 11 11 11
12 12 13 13 13 13 13 13 14 14 14 14 15 15 15 16 16 16 16 16 16 16 16 16 16 16 16 17 18 17 18 17 17 16 15 15 15 15 14 13 13 13 12 12 11
12 12 13 13 13 13 13 13 14 14 14 14 15 15 15 15 16 16 16 16 16 16 16 16 16 16 17 17 19 18 18 17 17 16 16 16 15 15 15 13 13 13 13 13 11
12 12 12 13 13 13 13 13 14 14 14 14 14 14 15 15 15 15 15 15 15 15 15 15 16 17 18 18 17 17 18 18 17 17 16 16 16 15 15 14 12 12 13 12 12
11 11 12 12 13 13 13 13 13 13 14 14 15 14 14 15 15 15 15 14 14 15 16 15 16 17 17 17 17 17 18 18 17 17 17 17 17 16 16 16 15 14 14 13 12
11 11 11 12 12 13 13 13 13 13 14 14 14 15 14 14 14 13 15 14 14 15 15 16 17 17 16 17 17 18 18 18 17 17 17 17 18 17 17 17 16 15 13 13 13
11 11 11 12 12 12 12 12 13 13 13 13 14 14 14 14 13 14 14 13 13 15 15 16 16 16 16 17 17 18 18 17 17 17 19 18 20 18 17 17 17 15 14 14 14
11 11 11 11 11 12 12 12 12 13 17 13 13 13 14 13 13 14 13 13 14 14 14 16 15 15 16 17 17 18 17 17 17 18 18 19 19 19 18 16 17 17 16 15 15
11 11 11 11 11 11 12 12 12 13 16 13 13 12 13 12 13 13 14 13 14 14 14 16 15 15 16 17 16 17 17 17 17 18 20 20 19 21 19 18 17 16 17 16 16
11 11 11 11 11 11 11 11 12 14 13 13 13 12 13 13 13 13 13 13 14 14 15 15 15 15 15 16 15 15 17 19 19 20 21 19 19 20 19 18 18 18 18 17 16
10 11 11 10 11 11 11 11 12 13 13 12 12 12 13 14 14 14 14 14 14 15 17 16 16 15 15 16 17 16 18 20 19 21 21 18 19 20 19 19 19 18 18 17 17
10 10 11 10 10 10 10 11 13 12 12 12 13 13 13 14 14 14 14 15 15 14 16 16 17 16 16 16 16 17 17 18 20 19 20 21 19 19 19 19 19 18 18 17 17
9 10 10 10 10 10 9 11 11 12 12 12 14 14 15 14 13 14 14 15 15 14 15 16 17 16 15 15 15 16 17 18 18 20 19 21 19 20 19 19 18 18 17 17 17
9 9 10 9 9 9 10 11 10 11 12 11 12 13 14 14 14 15 15 15 15 14 14 15 16 16 15 16 17 16 17 17 19 19 20 21 20 20 19 19 17 18 18 18 17
8 8 9 9 8 8 9 9 10 10 11 11 12 12 13 13 14 15 15 15 15 15 14 15 17 17 17 17 17 17 18 18 19 19 19 19 19 19 18 18 18 18 18 18 18
8 8 8 8 8 8 8 9 10 9 10 10 11 12 13 13 14 15 15 15 15 15 15 15 16 17 18 16 16 17 17 18 19 19 19 20 20 19 18 18 18 18 18 18 18
7 7 8 8 8 8 8 8 9 10 10 10 11 12 12 13 13 14 15 14 15 15 15 15 16 17 19 18 18 17 18 17 19 19 19 19 19 19 19 18 18 17 18 18 18
7 7 7 6 6 6 7 7 8 9 9 10 11 11 11 13 14 14 14 14 15 15 15 15 17 17 18 17 17 18 18 18 18 19 20 20 19 19 18 18 17 17 17 17 17
7 7 7 7 7 7 6 7 7 8 8 10 10 10 10 11 12 12 12 13 15 16 15 16 17 17 17 17 17 17 18 18 18 18 19 19 19 18 18 18 17 17 17 16 16
6 6 6 6 5 5 7 7 7 8 8 9 9 10 10 11 13 14 14 15 15 13 15 16 17 17 18 17 17 18 18 17 18 18 18 19 18 18 18 18 17 17 17 16 16

GFSSW_700_temp_339.txt.gz
Temp
13 13 14 14 15 15 15 15 16 16 16 16 16 16 15 15 15 15 15 15 16 16 16 16 16 14 16 16 16 16 18 17 17 15 14 14 14 13 12 12 12 12 11 10 11
13 13 13 14 14 14 15 15 16 16 16 16 16 16 16 16 15 15 16 15 16 16 16 15 16 16 17 17 17 18 17 16 16 16 15 14 14 13 13 12 12 12 11 10 11
13 13 13 14 14 14 14 15 15 16 16 16 16 16 16 16 16 15 16 16 16 16 16 16 16 17 18 18 17 18 16 16 15 15 15 15 14 14 14 14 12 12 10 11 11
12 13 13 13 14 14 14 14 15 15 16 16 16 16 16 16 16 16 16 16 16 16 16 16 17 19 19 18 17 17 16 16 15 14 15 15 15 14 14 14 13 11 11 11 10
12 13 13 13 14 14 14 14 14 15 16 16 16 16 16 16 16 16 16 16 16 16 16 16 18 19 19 18 18 17 16 16 15 15 15 14 15 14 14 13 12 11 11 11 10
12 13 13 13 13 14 14 14 14 15 15 16 16 16 16 16 16 17 16 16 16 16 16 17 17 17 18 18 18 17 17 16 16 15 15 15 15 15 13 13 12 11 11 10 11
13 13 13 13 13 13 14 14 14 14 15 15 16 16 16 15 16 17 16 16 16 16 16 17 17 18 18 18 17 17 17 17 16 16 15 15 14 15 13 13 12 11 11 11 11
13 13 13 13 13 14 14 14 14 14 15 15 15 16 15 16 17 17 17 16 16 16 16 16 17 17 18 17 18 18 18 18 17 16 16 15 16 15 13 13 12 12 11 11 11
13 13 13 13 13 14 14 14 14 14 15 15 15 15 15 17 16 16 16 16 16 16 16 17 17 18 18 18 19 19 19 19 18 17 17 16 16 15 14 13 13 12 12 11 11
12 13 13 13 14 14 14 14 14 14 15 15 15 15 15 15 14 16 16 16 15 16 16 16 17 18 19 20 17 21 20 19 19 18 17 18 17 15 14 14 13 13 12 12 11
12 12 13 13 13 14 14 14 14 14 14 14 13 13 13 14 16 16 16 16 15 16 16 17 18 19 20 20 20 20 20 20 19 18 18 18 18 16 15 14 14 14 13 12 12
12 12 13 13 13 13 13 13 13 13 14 15 15 15 15 16 14 14 14 15 15 16 17 18 18 19 19 20 20 19 20 20 19 18 18 19 19 17 15 15 15 14 13 13 12
12 12 12 12 13 13 13 13 13 13 14 13 15 14 14 15 14 15 15 15 16 17 18 18 19 19 19 19 20 20 20 21 20 19 19 19 20 19 16 15 15 15 14 14 13
11 12 12 12 12 13 13 13 13 13 13 14 14 13 15 15 14 15 14 15 16 17 18 18 19 19 19 19 19 20 20 20 19 19 21 20 16 16 18 16 15 15 15 15 14
11 11 12 12 12 12 12 13 13 13 17 15 14 15 14 14 15 14 14 15 16 17 17 18 18 18 18 19 19 20 20 20 20 19 20 21 21 17 18 17 16 16 15 15 14
11 11 11 12 12 12 12 13 13 13 18 16 14 14 13 14 15 14 14 15 16 16 17 18 18 18 18 18 19 19 19 19 19 20 21 22 22 16 15 19 18 17 16 16 15
11 11 11 11 12 12 12 12 12 16 16 16 16 15 15 15 16 14 14 15 16 16 17 17 17 17 17 18 19 19 19 20 21 22 22 22 22 18 16 19 19 19 18 17 16
11 11 11 11 11 11 11 10 14 16 16 15 15 15 16 16 16 16 15 16 16 17 18 18 19 18 17 18 19 19 19 20 21 23 23 22 22 21 19 19 19 19 19 17 17
10 11 11 11 11 11 11 12 15 16 15 15 16 16 16 16 17 16 16 17 17 17 18 20 19 19 18 18 18 19 19 20 21 22 23 23 21 21 21 20 19 19 19 18 17
10 10 10 10 10 10 10 12 14 14 13 14 16 16 17 17 16 17 17 17 17 17 17 18 19 19 18 18 18 19 20 20 21 21 22 23 22 22 20 20 20 19 18 18 17
9 9 10 10 10 10 10 13 13 13 13 14 15 16 17 17 17 17 17 17 17 17 17 17 18 19 18 18 19 18 19 20 21 21 22 23 22 22 21 20 20 19 18 18 18
8 8 9 9 9 9 11 13 12 12 12 13 13 14 16 17 17 17 17 17 17 17 17 17 18 19 19 18 18 19 19 20 20 21 21 21 22 21 20 19 19 19 18 17 18
8 6 8 9 9 11 11 11 11 12 12 13 13 14 15 16 16 17 17 17 16 17 17 17 17 19 20 19 19 19 19 20 21 21 21 22 22 21 20 19 18 18 17 18 18
8 7 7 9 8 9 12 11 12 11 12 12 13 13 14 15 16 16 17 16 16 16 16 16 18 19 21 20 20 19 18 19 20 21 22 22 21 20 19 18 17 17 16 17 18
7 7 7 9 9 9 10 11 11 12 11 12 12 13 14 15 16 16 16 16 16 16 16 16 18 18 19 19 20 20 19 19 20 20 21 22 21 20 20 19 17 16 16 16 18
6 5 7 6 7 7 9 9 10 11 11 12 12 14 13 14 15 15 15 16 17 16 16 16 17 18 19 19 19 19 20 20 20 20 20 20 20 19 18 18 17 16 15 16 17
6 6 6 6 7 8 9 10 10 10 10 11 12 11 12 13 12 12 12 13 14 15 16 17 18 18 19 19 19 19 19 20 20 20 20 20 19 18 18 18 16 16 15 15 15

GFSSW_700_temp_342.txt.gz
Temp
13 14 14 15 15 15 16 16 16 16 16 16 16 16 15 15 15 15 15 16 16 16 16 17 17 16 14 15 14 17 19 18 17 16 16 15 15 14 13 13 13 12 12 12 11
13 13 14 14 15 15 15 16 16 16 16 16 16 16 16 16 16 16 16 16 16 16 16 15 17 16 16 16 17 18 18 17 17 16 16 15 14 14 14 14 13 12 10 11 10
13 13 13 14 14 15 15 15 16 16 16 16 17 16 16 16 16 16 16 16 16 17 17 17 16 15 17 19 18 18 17 17 17 17 16 15 15 15 14 14 13 12 10 12 9
13 13 13 14 14 14 15 15 16 16 16 17 17 17 16 16 16 16 16 16 17 17 17 17 17 18 17 19 18 18 17 17 16 16 16 16 16 15 15 15 13 12 11 10 9
13 13 14 14 14 14 14 15 15 16 16 17 17 17 16 16 17 16 16 16 17 17 17 16 18 19 19 19 17 18 18 17 16 16 16 16 16 15 15 14 13 12 11 10 10
13 13 14 14 14 14 14 14 15 15 16 16 17 17 16 17 16 16 16 17 17 17 17 17 18 19 19 19 18 18 18 17 17 17 16 16 16 15 14 13 12 12 11 11 11
13 13 14 14 14 14 14 14 15 15 15 16 16 16 16 16 16 17 17 17 16 17 16 17 18 18 19 19 18 18 18 17 17 17 16 16 16 15 14 13 12 12 11 11 11
13 13 14 14 14 14 14 14 15 15 15 15 15 16 16 16 17 17 17 17 16 16 16 17 17 18 19 19 19 19 18 16 18 17 16 15 16 15 14 13 13 12 12 12 12
13 13 14 14 14 14 14 14 14 15 15 15 15 15 15 16 16 17 17 17 16 17 17 17 17 17 19 19 18 17 14 19 18 18 17 16 17 15 14 14 13 13 12 12 12
13 13 14 14 14 14 14 14 14 15 15 15 15 16 16 15 15 15 16 16 16 16 16 17 17 18 19 19 14 14 15 20 19 18 18 18 17 15 15 15 14 13 13 12 12
12 13 13 14 14 14 14 14 14 14 15 15 13 14 15 15 14 16 15 16 16 16 17 17 18 19 20 19 20 17 18 20 20 19 19 19 18 16 15 15 14 14 13 13 12
12 12 13 13 13 14 14 14 14 14 15 15 15 14 15 14 15 15 15 15 16 17 17 18 18 19 20 19 20 20 20 18 20 19 19 19 19 17 16 16 15 15 14 13 13
12 12 12 13 13 13 13 14 14 14 15 16 14 14 15 15 15 16 15 15 16 17 18 18 19 20 20 20 21 21 21 20 19 20 20 20 19 18 12 16 16 15 15 14 13
12 12 12 12 13 13 13 13 14 14 13 16 15 15 15 15 15 16 16 16 17 18 18 19 19 20 20 20 21 21 21 21 21 20 21 20 20 16 16 16 16 16 16 15 14
12 12 12 12 12 12 13 13 14 14 16 16 16 16 15 15 16 16 16 15 17 18 18 19 20 20 20 20 21 21 21 21 21 21 21 21 21 17 18 17 17 16 16 16 15
12 12 12 12 12 12 12 13 13 12 17 17 16 16 15 15 17 16 16 15 17 18 18 19 20 19 20 20 20 20 20 21 21 21 21 22 22 16 15 17 15 16 16 16 16
12 11 12 12 12 12 12 13 12 15 18 18 18 17 16 16 16 16 16 16 17 17 18 18 19 19 19 19 19 20 20 21 21 22 22 23 20 16 17 18 18 17 17 17 16
11 11 11 12 12 12 12 11 13 17 19 18 17 17 17 18 17 17 16 17 17 17 18 19 19 19 19 19 19 20 20 21 20 22 23 21 16 17 16 19 19 19 18 17 17
11 11 11 12 12 11 12 12 15 17 18 17 18 17 18 18 18 18 17 17 17 17 18 20 20 20 19 19 19 20 20 21 21 22 23 21 19 19 19 19 20 20 19 18 17
11 11 11 11 11 11 10 12 15 16 16 16 17 18 18 18 18 18 18 18 18 18 18 19 20 21 20 19 19 19 21 21 21 21 21 21 20 20 19 19 20 20 19 18 18
10 9 8 10 11 10 10 12 14 15 15 15 16 17 18 18 18 18 19 18 18 18 18 19 19 20 20 19 19 19 20 20 21 22 22 22 22 21 20 21 21 19 19 19 18
10 8 8 9 9 9 11 12 14 15 14 14 15 16 17 18 18 18 18 19 19 18 18 18 19 20 20 20 20 20 20 20 21 21 22 22 22 21 20 20 20 20 19 18 19
9 8 7 9 9 11 12 13 14 14 14 15 15 15 16 17 17 18 18 19 18 18 18 18 18 19 20 20 20 19 20 21 21 22 22 22 22 21 21 20 20 20 19 19 19
9 8 9 8 9 10 12 14 14 13 13 14 15 15 16 16 17 17 18 18 18 17 17 18 19 19 20 21 21 20 20 20 21 21 22 22 22 20 21 20 19 18 18 18 18
8 8 8 10 10 10 11 13 14 14 13 13 14 14 15 16 17 17 18 18 17 17 17 17 18 19 20 20 21 21 20 20 20 21 21 22 21 20 20 19 18 18 17 17 17
6 5 6 9 8 10 11 12 12 13 14 14 13 14 15 16 16 15 16 18 17 17 17 17 18 18 19 20 20 20 20 21 20 20 21 21 21 20 19 18 19 17 17 16 17
3 6 6 8 8 9 11 11 11 12 13 13 14 14 15 14 13 13 14 14 15 16 18 17 18 18 19 19 20 20 20 20 21 21 21 21 20 19 18 18 18 17 16 16 17

GFSSW_700_temp_345.txt.gz
Temp
14 14 14 15 15 15 16 16 16 16 16 16 16 16 16 16 16 16 16 16 16 16 16 14 14 14 15 15 15 14 16 16 15 15 15 15 14 14 13 13 11 12 12 12 8
14 14 14 15 15 15 15 16 16 16 16 16 16 16 16 16 16 16 16 16 16 16 16 15 14 15 16 16 16 17 17 16 16 15 15 15 14 13 13 12 11 11 12 12 10
13 13 14 14 15 15 15 16 16 16 16 17 16 16 17 17 16 17 16 17 17 16 16 16 16 14 15 16 17 17 17 17 16 16 15 15 14 14 14 13 13 14 13 12 11
13 13 14 14 14 14 15 15 16 16 16 17 17 17 17 17 16 16 16 17 17 17 17 17 16 15 15 17 17 17 17 16 16 16 16 15 15 15 14 13 13 13 13 12 11
14 14 14 14 14 14 15 15 15 16 16 16 17 17 17 17 17 16 16 17 17 17 17 17 17 16 17 16 18 17 17 16 16 16 16 16 15 15 14 14 13 13 13 12 10
14 14 14 14 14 14 15 15 15 15 16 16 16 17 17 17 16 17 17 17 17 17 17 17 17 17 17 17 17 17 17 16 16 16 16 16 15 16 14 13 13 12 12 11 10
13 14 14 14 14 14 15 15 15 15 15 16 16 17 17 17 17 17 18 17 17 17 17 17 17 18 18 17 16 15 17 16 17 16 16 16 15 15 14 13 12 12 11 10 10
13 14 14 14 14 14 14 15 15 15 15 15 16 16 17 17 17 18 17 17 17 17 17 17 17 18 17 14 18 16 15 15 16 17 16 16 15 15 15 14 13 11 11 11 11
13 14 14 14 14 14 14 14 15 15 15 15 15 16 16 17 17 17 17 17 17 17 17 17 18 18 18 17 18 15 15 14 15 17 17 16 15 15 15 15 13 12 11 11 11
13 14 14 14 14 14 14 14 14 15 15 15 15 16 15 15 16 17 17 17 17 16 17 17 17 18 18 18 19 18 15 16 15 16 17 16 16 16 15 16 15 13 12 12 12
13 13 14 14 14 14 14 14 14 15 15 15 15 16 15 15 15 15 17 17 17 16 16 17 17 17 18 18 19 18 18 16 16 17 17 16 15 16 15 14 14 13 12 12 12
13 13 13 13 13 14 14 14 14 14 16 15 15 16 16 14 15 15 16 16 16 16 17 17 17 18 18 18 19 18 18 17 17 19 19 18 16 15 15 15 15 14 14 13 12
12 13 13 13 13 13 13 14 14 14 14 17 17 16 16 15 15 16 15 16 16 16 17 17 18 18 19 19 19 19 18 18 20 20 19 18 16 14 15 15 15 15 14 14 13
12 12 13 13 12 13 13 14 14 14 14 16 16 15 15 15 16 16 15 16 16 16 17 18 18 19 19 20 19 19 18 16 17 20 20 19 15 15 16 17 15 15 15 15 14
12 12 13 13 12 12 13 13 14 13 11 16 15 16 15 16 16 16 16 16 16 16 17 18 18 19 19 20 20 20 18 18 19 21 21 21 18 17 16 17 16 16 16 15 15
12 12 12 12 12 13 13 13 13 12 13 17 17 16 16 16 16 16 16 16 16 16 17 18 19 19 20 20 20 20 20 20 20 21 20 21 18 16 17 16 17 17 16 16 15
12 12 12 12 12 12 12 13 13 12 18 18 17 17 16 16 16 16 16 16 16 16 17 18 18 19 19 19 20 20 20 20 17 17 16 20 20 19 18 19 20 18 17 16 15
12 12 12 12 12 12 12 13 12 15 17 18 18 18 17 17 17 17 16 16 16 16 17 18 18 19 19 19 19 19 20 19 17 15 18 20 18 19 19 18 18 19 18 16 16
12 13 12 12 12 12 12 12 13 16 16 17 18 18 18 18 18 17 17 17 17 17 17 18 18 19 20 19 19 19 19 20 20 21 20 19 17 18 19 19 19 17 17 16 16
12 12 12 12 12 11 11 13 13 15 15 16 16 17 18 18 18 18 18 18 18 17 18 18 18 19 20 19 19 19 20 19 20 17 16 20 18 19 19 19 18 18 17 17 16
11 10 11 11 11 10 11 12 14 15 15 15 15 16 16 17 18 18 18 19 18 18 18 18 18 19 19 19 19 19 19 19 20 20 16 14 19 21 20 19 18 15 18 18 17
10 9 8 9 9 10 12 12 13 14 15 15 15 15 16 16 17 18 19 19 19 18 18 18 18 19 19 20 20 19 19 20 20 20 21 21 20 20 20 19 19 19 18 18 17
9 10 7 8 9 10 11 12 13 13 14 14 15 15 16 16 16 17 18 18 18 18 18 18 18 18 19 19 20 20 20 20 20 20 20 19 20 21 20 20 19 19 19 18 18
9 9 9 9 9 9 10 11 13 14 14 14 14 15 15 16 16 17 17 18 18 18 18 18 18 18 18 19 20 20 20 20 20 20 21 21 21 20 20 20 20 19 18 18 17
8 8 7 8 9 9 10 11 12 13 14 14 14 14 15 15 16 16 17 17 18 18 17 18 18 18 19 19 19 20 20 20 20 20 20 20 21 20 20 19 19 19 19 18 18
6 7 8 9 8 9 10 11 12 13 14 14 14 14 14 14 15 15 15 16 16 17 17 17 17 18 18 19 19 20 20 20 20 20 20 20 20 20 20 20 19 19 18 19 18
6 8 8 9 9 8 10 11 11 12 13 13 14 14 14 14 13 14 15 15 14 15 16 17 17 18 18 18 19 19 20 20 20 20 20 20 20 19 19 19 19 19 19 19 18